Savannakhet Airport
VLSK : now visible

Airfield :











YOU CAN JOIN US ON...

 
LOGIN :

Register | Disclaimer

   EN    FR    IT 

 









Legend :    VFR   Marginal VFR   IFR   Intensive IFR   Very Intensive IFR
Visi :
Ceiling :
>= 8 km
>= 3000ft
5 to 8 km
1000 to 3000 ft
1500m to 5 km
500 to 1000 ft
800 to 1500m
200 to 500 ft
< 800m
< 200 ft
Symbols :   Thunderstorms  Fog  Heavy snow  Heavy precipitations  Wind > 20 kt






- Airport Elevation : 509 ft
- IATA code : ZVK


VLSK - Savannakhet

CURRENT METAR :
  • 271200Z 16002KT 6000 FEW020 SCT040 33/24 Q1007 NOSIG

EXPIRED METARs :
  • 271100Z 20002KT 7000 FEW020 34/23 Q1006 NOSIG

TAF TAF VLSK
Valid from the 27 at 12:00 until the 28 at 12:00 UTC


271100Z 2712/2812 18004KT 8000 SCT040 SCT100
VLVT FIR / Asia



MET'MAP, your aeronautical weather chart ! - Copyright ORBIFLY December 2007 - Disclaimer

ORBIFLY MET'MAP TEAM :

Programming & Development : Alexandra Zaïnal
Concept & original design : Baudouin d'Aumeries
Assistance for programming : Marc-Olivier Méhu
Technical & hardware support : Manuel Goepfert

Contact : metmap@orbifly.com




SOURCES & CREDITS :

   NOAA       Earth
Advisory